Theta_e
350 351 352 355 352 354 352 350 349 348 347 346 346 345 344 344 345 346 346 346 346 346 347 345 343 338 341 344 342 341 341 342 343 342 343 343 344 345 344 346 346 346 347 347 348 347 346 346 346 346 348 347 349 348 345 341 340 342 341 341 343 343
349 351 352 353 354 353 352 351 352 350 348 347 346 345 346 346 346 345 346 347 350 344 345 347 344 344 344 342 341 341 343 344 344 345 345 345 345 347 347 347 347 347 349 348 348 348 346 347 348 349 347 350 347 343 343 344 345 342 341 342 344 347
348 352 356 353 350 352 350 350 350 349 347 346 345 346 347 346 345 341 347 346 346 347 346 344 346 344 343 343 343 345 344 345 346 346 346 347 348 348 348 348 348 349 349 350 346 342 342 342 344 349 352 349 342 343 344 346 347 345 343 344 346 348
347 355 353 354 351 350 350 350 348 348 348 345 346 344 343 344 342 343 342 346 347 349 349 351 348 351 348 342 344 345 346 346 347 348 347 348 349 349 348 348 348 349 347 345 341 338 336 338 340 343 345 342 342 344 344 346 348 344 344 345 346 348
349 351 351 349 352 351 352 347 347 346 347 345 343 344 344 346 346 346 346 349 348 350 348 348 348 348 348 347 343 341 346 347 344 340 349 347 344 343 347 340 342 345 340 339 339 342 340 341 344 345 344 345 345 346 344 344 347 344 345 346 347 346
348 349 349 349 351 351 350 347 346 346 347 346 344 343 343 345 346 348 348 348 349 349 348 348 349 348 349 348 351 349 350 347 349 345 342 352 347 345 345 342 342 336 342 346 343 346 347 345 346 344 343 345 344 345 344 345 346 345 346 345 343 345
347 348 348 348 348 351 346 346 346 346 344 343 343 344 343 344 346 349 349 349 349 346 348 350 348 350 348 348 346 346 347 349 351 350 350 350 346 349 346 344 347 344 346 343 344 344 347 348 347 343 343 341 342 344 345 344 345 344 344 343 342 342
347 348 348 348 348 347 347 347 347 345 345 341 341 343 343 343 346 347 350 350 351 348 349 349 349 351 351 349 352 352 349 346 353 351 349 348 347 352 351 346 347 345 343 344 342 345 345 344 345 346 342 343 343 345 344 343 346 343 344 342 341 340
346 347 347 348 346 346 346 348 347 345 343 342 343 343 343 346 346 347 350 351 351 351 349 349 350 351 349 350 350 349 351 350 350 349 349 349 347 348 350 351 347 344 346 344 343 345 343 343 343 344 342 341 340 341 343 345 345 342 341 340 339 337
346 346 347 349 346 346 347 346 347 345 342 342 344 345 346 343 346 345 347 350 351 353 351 348 349 350 352 349 352 353 352 349 349 352 353 348 347 348 349 344 349 344 342 342 343 344 342 343 340 341 339 340 341 342 344 342 341 341 341 340 338 336
346 348 347 346 345 347 347 346 346 344 345 342 344 346 344 346 345 346 348 351 348 349 352 350 349 348 349 355 350 350 348 348 350 351 349 347 348 347 346 344 347 342 344 342 342 342 341 342 341 338 340 338 339 342 341 340 338 338 338 339 337 337
344 348 348 346 347 347 346 345 346 345 343 344 347 344 343 346 344 345 349 349 349 352 352 352 350 347 347 346 347 348 348 348 350 347 349 349 350 349 347 345 345 345 345 344 343 343 344 341 340 339 338 337 338 338 337 338 338 337 336 338 337 337
345 348 348 346 347 347 347 346 346 344 345 346 345 344 344 345 345 346 350 349 349 352 353 348 346 343 343 347 346 351 348 350 349 349 350 349 349 349 349 348 347 344 343 344 343 344 342 342 341 339 338 337 337 334 335 335 335 335 334 334 334 334
347 349 348 347 347 346 347 346 345 344 345 346 343 343 344 344 345 345 348 348 349 351 352 350 345 340 344 347 343 341 344 348 347 350 351 350 347 346 345 343 342 343 341 341 341 341 340 340 339 338 337 335 336 335 332 331 332 332 332 333 333 332
348 347 348 347 347 346 348 345 343 343 345 345 345 345 345 345 344 346 346 349 351 350 352 347 343 346 343 343 340 338 342 347 348 349 352 347 345 345 344 343 342 342 342 339 339 338 337 337 337 335 335 335 333 331 331 330 329 329 329 331 330 329
347 347 347 347 348 347 347 346 344 343 345 347 343 344 345 345 345 346 346 349 350 351 347 346 344 345 345 345 342 340 345 347 346 346 345 344 343 342 342 342 341 342 339 338 337 337 337 337 337 335 334 333 331 330 328 327 327 325 325 326 325 325
346 346 346 347 347 347 347 345 345 345 345 347 343 343 344 345 345 346 347 346 349 350 349 348 348 346 344 343 342 340 345 345 345 343 343 341 340 339 339 338 339 339 341 337 336 334 336 336 335 333 332 331 328 327 325 324 324 323 323 322 321 319
345 346 346 346 348 347 346 345 344 343 345 344 345 345 345 345 345 347 348 347 349 349 349 348 348 348 348 344 344 344 344 343 343 342 341 339 340 339 339 338 338 339 336 336 335 334 333 334 332 330 329 327 326 323 322 322 322 321 319 319 318 317
344 345 345 347 346 345 345 345 344 344 345 344 345 348 348 346 347 348 347 348 348 347 350 348 348 348 347 344 343 343 343 341 340 340 339 337 337 338 337 337 335 335 336 334 333 334 334 333 330 328 326 326 324 322 321 320 320 318 317 318 316 315
344 345 345 344 343 342 343 341 340 342 341 341 343 343 345 346 347 345 347 348 348 345 343 345 345 345 343 342 342 340 339 340 339 338 336 336 335 335 335 335 334 333 334 333 333 332 336 332 329 326 325 324 323 322 320 318 318 317 317 316 316 316
343 345 342 341 340 340 339 340 340 339 338 340 339 341 344 346 346 345 347 347 346 345 344 344 342 341 341 339 339 338 339 337 336 335 334 333 334 334 335 334 333 333 331 332 329 335 333 330 325 323 323 322 321 321 319 318 316 315 314 313 314 313
343 344 343 340 338 340 342 339 339 337 338 338 338 340 341 344 344 344 345 344 344 344 342 341 340 339 339 338 338 337 337 336 334 334 333 333 333 332 333 334 332 330 331 331 329 333 331 328 323 321 318 319 320 318 318 317 315 313 313 313 314 315
342 342 341 341 340 338 340 341 340 338 338 339 341 344 341 340 341 341 341 341 341 340 338 337 338 337 337 337 335 335 334 333 332 332 333 332 331 332 332 332 331 330 323 327 327 330 332 333 324 325 324 320 317 315 314 312 312 312 312 312 312 312
342 342 342 341 341 342 341 343 342 342 342 341 339 340 341 339 338 337 336 337 337 336 335 335 335 335 335 335 335 333 332 332 331 331 331 331 330 329 331 331 330 329 327 323 323 322 330 332 331 327 320 318 320 320 312 311 308 310 311 310 310 312
341 341 340 340 341 343 342 341 341 341 341 339 339 337 336 334 335 335 335 335 334 334 333 333 335 335 333 334 333 332 331 331 330 329 330 328 327 329 329 329 329 329 329 324 319 321 323 325 325 325 321 321 319 317 316 312 310 309 312 309 310 311
341 341 340 341 342 342 341 339 338 335 334 334 331 331 331 332 331 331 332 334 334 333 332 332 332 334 333 333 331 329 330 329 328 328 328 327 329 329 329 328 327 326 324 324 320 317 315 317 320 319 320 319 319 317 315 314 312 305 309 310 309 309
341 341 341 341 342 341 339 339 339 336 335 334 332 333 335 336 334 333 333 333 331 332 331 332 332 333 332 331 330 329 329 327 325 325 326 327 326 326 326 325 326 324 322 322 321 313 312 312 314 316 316 315 317 320 320 316 313 306 303 307 309 310
342 340 341 342 341 341 339 338 338 337 336 335 334 334 335 334 334 331 330 330 330 330 331 332 331 329 331 329 329 328 327 325 323 323 323 323 324 324 322 322 323 323 324 325 324 319 316 313 310 310 315 315 313 314 317 318 316 314 310 305 305 308
340 340 341 342 341 340 340 339 339 337 336 336 335 334 333 332 329 330 329 329 329 330 332 331 330 329 328 328 328 326 325 323 322 321 321 321 322 322 321 320 320 319 320 320 320 319 315 312 313 311 312 313 314 312 311 313 314 313 309 309 306 306
339 340 341 341 341 340 341 339 340 339 337 336 334 332 331 329 329 329 328 328 329 329 329 329 328 328 328 329 326 325 322 322 322 320 319 319 319 319 318 317 317 318 318 318 318 318 317 316 317 316 317 317 314 313 311 310 310 310 309 309 304 302
340 340 341 341 341 340 340 339 341 340 339 335 333 331 329 328 328 328 327 327 327 327 328 327 327 327 327 327 326 324 322 320 321 320 318 316 315 313 314 315 316 317 317 316 315 316 316 316 316 314 314 313 312 311 310 309 309 309 309 309 306 304
340 340 340 340 341 339 339 340 341 340 336 334 332 330 329 328 328 326 327 326 327 327 327 326 326 325 324 325 325 322 321 321 320 320 317 317 315 314 314 313 314 315 315 316 316 315 315 314 314 313 312 312 311 312 312 310 310 309 309 307 308 306
338 339 339 340 340 340 340 341 341 338 337 334 332 332 330 329 329 327 327 326 326 325 325 324 324 324 324 323 324 321 321 320 318 319 317 316 315 314 314 313 314 314 315 315 316 317 315 315 314 311 309 311 310 311 309 310 311 310 310 309 308 305
338 339 340 339 339 340 341 340 340 338 335 334 333 332 332 330 329 328 327 326 326 326 324 324 323 323 323 323 322 322 321 320 318 317 316 315 313 313 313 311 312 311 312 313 314 314 314 314 313 313 313 310 310 309 310 311 310 310 309 308 305 305
337 339 339 339 339 340 339 340 338 339 338 337 333 333 332 331 330 329 328 327 327 327 326 325 324 324 323 322 322 321 319 317 317 316 314 314 313 313 313 312 312 312 312 312 313 313 313 313 312 312 312 310 310 309 309 308 309 309 308 307 306 305
337 338 339 339 339 339 339 339 339 335 336 336 334 333 332 331 330 330 329 327 327 328 326 325 325 324 323 322 320 318 318 316 316 315 314 312 312 312 313 312 311 311 310 311 311 311 311 311 311 311 311 311 310 308 309 308 309 308 308 308 307 307
336 338 338 339 339 339 339 338 337 336 335 335 335 333 331 331 332 330 329 329 327 326 326 326 324 323 321 321 320 318 317 316 315 314 314 313 312 311 311 311 311 311 311 312 311 311 311 311 311 310 310 310 308 307 308 309 309 309 309 308 307 307
Wind_Speed
12 12 12 11 11 12 13 15 13 14 13 13 12 11 11 10 10 8 9 10 12 8 7 8 10 8 10 8 7 5 7 7 6 6 6 5 4 4 4 4 4 6 5 8 8 10 10 11 10 10 10 11 13 8 8 4 6 6 5 3 6 8
10 12 12 10 9 10 11 12 12 11 10 11 11 11 10 9 9 7 10 9 8 5 5 7 7 9 7 8 8 7 7 7 7 5 6 6 5 7 6 7 6 8 9 8 12 8 9 11 11 11 11 12 8 6 6 3 6 6 5 6 7 8
12 12 12 11 10 10 12 10 11 10 9 11 11 11 9 9 8 8 8 7 5 4 4 5 6 7 7 8 8 8 8 8 8 8 7 8 7 8 9 8 10 9 12 13 9 9 8 7 7 12 10 8 6 6 3 3 9 3 5 6 7 9
12 12 10 7 9 10 9 9 8 8 8 8 9 8 8 8 8 7 6 4 4 4 4 4 6 10 10 7 6 7 8 9 8 9 9 7 10 10 12 12 11 13 11 9 8 9 7 5 7 8 7 6 5 3 2 4 4 6 5 8 8 11
11 11 11 9 9 9 9 8 8 7 7 7 7 6 6 5 4 4 5 4 5 5 5 5 6 5 4 3 7 7 7 7 8 8 12 8 8 7 10 9 8 10 7 9 7 3 5 4 4 3 4 1 3 1 3 4 5 7 8 6 9 12
11 10 10 8 8 9 9 7 7 7 7 6 6 6 5 5 5 5 4 5 4 4 5 5 4 5 5 7 4 5 5 6 6 7 9 3 5 5 5 8 10 9 7 1 1 1 3 3 4 2 3 2 3 3 4 5 6 8 8 8 11 16
10 10 10 9 9 8 7 7 6 6 7 6 5 5 5 5 5 6 5 4 4 4 4 5 2 2 4 7 10 7 5 5 6 3 6 3 8 1 1 3 2 2 5 3 3 1 3 1 2 5 2 4 4 3 2 4 7 7 8 9 12 19
10 9 9 9 8 8 7 7 6 6 5 5 6 6 5 5 5 5 5 3 3 3 3 4 7 8 8 5 4 5 6 3 1 3 2 5 1 3 6 2 4 2 1 2 0 3 3 2 1 1 3 1 4 4 3 3 4 6 6 7 10 16
10 11 9 8 8 7 7 6 7 6 5 6 4 5 6 5 5 5 4 4 4 3 3 3 3 3 3 3 2 1 2 2 5 5 4 2 2 4 3 4 1 2 2 1 1 0 2 2 1 1 1 2 3 4 3 2 4 6 6 7 8 12
10 10 9 8 7 7 7 7 6 6 6 6 5 5 5 6 5 4 4 4 4 3 3 3 2 3 2 2 1 1 3 1 2 5 3 3 0 2 3 3 4 2 1 2 2 3 3 1 1 1 3 3 3 3 2 2 3 5 5 8 8 9
11 9 8 8 7 7 7 6 6 6 5 6 5 5 6 5 4 4 4 3 4 3 3 2 3 3 5 2 1 1 2 3 1 2 3 2 1 2 2 1 4 1 4 3 2 2 3 2 2 2 3 4 4 2 3 3 4 3 5 4 6 7
10 9 8 8 7 7 7 7 6 5 6 6 7 6 6 4 4 4 3 3 2 3 3 1 5 7 3 5 4 3 2 2 2 3 1 4 3 2 2 3 3 3 1 2 2 2 2 3 4 4 4 5 4 4 4 4 4 4 4 3 9 7
11 10 9 9 7 7 7 7 7 6 6 6 7 6 4 4 4 3 3 3 3 2 1 4 1 3 8 8 5 1 2 3 1 2 3 2 3 1 0 0 1 1 2 1 1 2 3 3 2 4 6 6 4 5 5 5 5 5 5 5 6 6
10 10 10 8 8 7 7 7 6 5 6 6 5 4 3 4 4 3 3 2 3 2 1 3 3 2 3 1 4 9 5 2 2 4 4 2 1 2 2 2 2 2 2 1 3 1 2 1 1 4 4 5 5 5 5 5 5 4 5 5 5 7
10 11 10 9 8 8 7 6 6 6 6 6 4 4 3 3 4 3 3 2 3 2 3 4 3 1 2 3 2 1 6 2 3 3 4 4 2 3 2 3 4 4 3 2 2 2 1 3 5 5 5 4 5 4 4 4 4 5 5 5 5 6
12 11 11 10 8 7 7 6 5 6 6 5 5 4 4 4 3 2 2 2 1 1 3 1 4 6 1 1 1 1 4 1 3 4 4 4 2 1 3 2 3 3 2 2 1 1 2 4 4 4 4 4 3 4 4 4 5 6 6 5 5 5
12 12 11 10 9 8 7 7 7 6 6 6 4 4 4 3 3 2 3 2 1 1 2 4 4 7 6 3 5 4 1 3 3 3 4 3 3 3 3 2 2 3 4 3 2 1 3 4 4 3 3 4 4 4 5 5 5 5 5 6 5 5
12 11 10 9 9 8 8 7 6 7 6 5 5 3 3 3 3 2 2 1 2 2 1 2 1 1 3 4 3 4 4 4 4 3 3 1 2 2 3 4 3 2 4 3 5 2 2 5 4 4 3 4 4 4 4 4 5 5 5 5 5 5
12 11 11 10 9 9 9 8 6 6 6 5 5 4 3 3 2 2 2 2 2 2 1 2 2 2 1 3 3 4 4 5 4 3 3 3 1 2 0 0 1 2 1 2 2 1 3 5 5 4 4 4 4 5 5 5 5 5 5 4 4 4
11 11 10 10 9 9 8 8 8 7 6 6 5 5 4 3 2 3 3 2 1 3 1 1 3 3 3 3 3 4 4 3 4 4 3 2 3 3 3 4 2 2 3 4 1 2 3 6 6 6 5 4 5 5 6 5 5 4 4 4 4 4
11 11 9 7 8 9 9 8 7 7 7 7 6 6 4 4 3 4 3 3 2 3 4 3 3 4 3 3 3 3 2 3 2 2 1 2 2 2 2 2 2 1 1 2 3 4 9 7 6 5 4 4 4 4 5 4 5 4 4 4 4 4
11 11 10 10 10 8 8 8 8 8 7 7 7 6 5 4 4 4 4 4 3 3 4 4 4 4 3 3 3 2 2 2 2 1 1 0 0 2 4 4 1 2 1 1 2 3 7 8 7 6 6 4 4 3 3 4 4 4 4 4 3 3
10 10 10 9 8 9 9 8 8 7 6 5 4 3 5 5 4 5 4 4 4 4 4 4 4 3 3 3 3 2 2 1 1 2 3 1 1 1 1 2 3 1 3 2 1 2 2 3 4 4 6 5 5 4 4 3 4 4 4 4 3 3
11 10 10 11 10 10 9 8 7 6 6 6 7 7 7 6 6 6 5 4 5 4 4 3 4 3 2 3 1 0 3 2 0 2 1 1 2 1 2 3 2 1 2 4 3 2 3 3 3 2 7 7 5 6 6 4 5 3 5 5 4 3
13 11 10 11 11 9 9 8 6 7 7 7 7 6 6 6 6 6 6 6 5 5 4 3 3 2 1 1 2 2 3 2 1 1 1 2 2 2 3 3 2 1 2 1 4 3 2 2 2 3 4 4 4 7 1 8 5 5 5 4 4 3
11 11 11 13 12 9 9 10 10 9 9 7 7 7 7 8 8 7 7 6 6 5 5 4 3 1 2 2 1 1 1 2 3 2 2 3 3 3 4 3 3 2 3 3 3 3 3 2 2 4 5 3 4 4 2 8 7 4 3 3 4 3
14 12 13 13 13 10 11 11 11 11 10 9 8 7 6 6 8 7 6 6 6 5 4 4 2 1 0 1 1 1 2 2 4 4 3 3 4 4 4 4 3 3 2 2 0 3 2 4 3 4 4 4 4 3 5 2 2 8 5 4 4 4
13 13 13 12 13 11 11 10 11 10 8 8 9 8 8 8 6 6 6 6 6 4 3 1 1 1 1 2 2 2 2 3 3 4 4 4 4 4 4 5 5 4 4 3 2 1 2 3 2 3 3 4 3 3 4 5 6 3 2 6 6 3
13 13 14 15 14 14 11 10 11 8 8 7 8 9 8 7 7 6 7 6 5 5 3 1 1 2 2 2 2 3 3 3 3 4 4 5 5 6 6 6 5 5 4 4 4 4 3 3 2 3 2 3 4 4 3 4 4 2 5 2 5 5
16 13 13 16 14 14 13 11 9 9 10 8 9 9 8 9 7 7 7 6 5 4 3 3 3 2 2 4 3 3 4 4 4 5 6 6 7 7 6 6 6 6 6 6 5 5 5 4 4 4 3 1 1 2 2 3 3 3 2 6 2 2
16 14 15 15 15 15 14 12 10 10 11 12 12 11 10 10 7 7 7 6 5 4 4 4 4 2 2 3 2 3 4 5 5 5 5 6 6 6 6 6 7 8 7 7 6 6 6 6 5 4 4 4 4 4 4 3 4 3 3 2 0 1
16 16 15 15 15 15 12 11 11 11 12 12 12 10 12 13 11 9 8 7 5 4 4 5 4 4 3 3 3 4 4 5 5 5 5 5 5 6 5 6 6 6 6 6 6 6 5 6 5 5 5 5 5 4 4 4 3 4 4 3 3 1
18 17 15 16 16 15 13 11 11 12 10 9 11 12 12 12 11 10 8 8 7 6 6 5 4 4 5 5 4 4 4 5 5 5 6 6 6 6 6 6 6 7 6 6 6 6 5 6 5 5 4 4 4 4 4 4 4 4 3 3 4 3
18 17 15 15 15 15 13 12 10 11 10 9 12 12 10 11 11 9 8 8 8 7 6 6 5 5 5 6 5 5 5 6 6 6 6 6 6 6 6 7 7 6 7 6 6 7 6 6 5 5 4 4 5 5 4 4 4 4 5 5 4 5
18 18 17 16 15 15 13 11 12 7 8 7 10 10 10 9 10 10 10 9 7 7 6 5 5 5 6 6 6 6 6 6 6 7 7 6 6 7 6 7 6 6 6 5 6 6 6 6 5 6 6 5 4 4 4 4 5 5 5 5 5 5
19 18 17 17 15 15 12 11 13 10 9 10 10 10 10 9 9 9 10 9 7 6 6 6 4 6 7 7 7 7 7 7 7 7 7 7 7 6 6 6 6 6 7 5 6 7 6 6 6 6 6 5 5 5 4 5 4 5 5 5 5 4
19 17 17 17 15 14 11 13 12 12 12 10 12 12 12 12 11 10 10 8 7 6 6 5 6 7 8 8 7 7 8 8 7 7 7 6 7 7 6 6 6 6 6 5 5 5 5 5 5 6 5 5 4 4 4 4 4 5 4 4 4 4
Wind_Direction
164 162 151 148 146 141 137 135 132 131 133 133 135 142 144 144 140 146 166 180 178 173 143 144 168 145 164 172 163 167 178 181 182 187 178 176 194 190 201 218 230 233 243 232 227 230 229 223 222 228 229 241 246 249 256 304 355 32 49 42 45 45
164 152 153 150 149 144 147 152 144 141 142 143 148 151 164 159 156 161 191 176 197 175 153 153 147 149 157 142 160 168 181 180 184 177 191 189 190 203 206 214 223 231 235 233 226 221 212 223 226 215 221 236 241 252 266 357 23 35 24 28 43 35
158 161 155 156 153 151 159 160 153 153 146 155 152 170 171 172 165 175 186 181 186 157 150 146 157 154 138 146 135 176 177 187 189 191 195 202 201 203 209 212 218 227 229 229 225 225 214 198 199 212 218 226 246 247 315 6 70 73 49 54 64 34
164 153 159 152 151 158 164 160 159 155 153 154 167 175 173 185 178 186 152 168 164 164 160 151 110 118 131 151 158 173 188 193 197 205 211 210 205 215 211 214 214 217 225 226 226 226 242 180 182 184 203 226 255 10 358 101 99 68 56 46 51 35
160 160 163 160 162 161 161 169 161 154 158 162 170 162 175 186 166 167 161 180 174 180 166 140 142 154 156 151 175 180 177 197 199 190 200 214 197 194 202 204 204 213 219 223 223 340 346 353 327 348 306 340 259 29 329 69 79 82 75 54 48 39
162 170 163 165 157 155 165 166 163 154 154 171 166 163 177 175 176 187 188 190 188 185 179 141 169 183 184 193 212 206 193 195 201 217 175 201 295 200 199 233 202 173 230 243 40 249 6 336 316 311 308 23 345 329 8 63 88 82 80 69 51 39
166 171 172 166 160 162 169 166 158 158 165 173 160 174 182 179 179 186 197 193 197 201 164 140 208 240 231 212 181 205 204 214 219 201 158 151 223 135 262 260 46 308 57 294 23 307 232 70 327 310 351 356 12 347 4 26 102 88 90 80 59 40
169 172 173 168 168 169 167 162 154 155 190 142 172 165 197 178 178 192 197 191 207 210 202 181 176 190 200 200 151 196 182 173 68 178 231 130 93 351 247 77 324 22 296 3 214 41 326 276 336 306 339 328 357 51 5 42 61 97 86 84 74 47
169 175 170 170 175 176 160 157 154 171 177 151 190 177 176 177 199 184 186 200 200 202 229 192 189 209 182 199 123 333 20 276 130 353 354 16 102 211 57 265 48 220 134 235 165 90 331 343 284 305 302 71 11 24 41 59 83 84 93 88 79 60
166 175 165 174 178 171 161 159 163 181 160 158 188 191 170 186 204 177 177 195 195 204 233 195 194 219 37 216 82 195 126 205 205 156 125 254 122 79 237 96 224 12 53 154 17 62 304 317 298 282 24 47 78 27 30 38 108 103 107 100 105 89
163 174 169 181 172 166 163 164 170 179 144 168 184 186 194 194 185 189 182 183 202 193 222 202 209 227 169 294 177 165 85 242 329 155 158 126 89 47 13 332 42 352 14 9 7 14 326 335 324 6 61 24 58 55 47 40 20 72 122 120 106 117
174 171 181 178 168 164 167 166 171 161 166 168 182 191 193 180 195 182 175 186 185 200 230 118 357 324 345 206 200 133 125 304 285 104 81 63 59 5 22 27 1 57 355 11 7 2 355 5 349 354 41 67 25 50 57 46 54 59 42 80 130 122
176 172 185 174 168 167 168 170 170 171 166 166 186 197 173 189 193 174 177 195 186 187 223 54 12 297 322 351 337 226 139 96 183 339 67 62 47 51 81 57 87 5 18 47 11 38 14 21 29 17 12 40 59 47 48 48 51 39 48 33 13 113
173 175 180 171 173 171 171 170 172 172 157 176 192 179 168 196 200 191 181 187 194 193 126 97 105 291 341 324 337 345 316 55 33 88 77 36 72 49 37 21 4 351 32 319 65 357 57 12 16 81 61 38 42 28 39 61 65 67 57 49 49 23
174 176 173 173 175 173 174 170 171 171 169 188 169 180 186 195 203 199 175 172 200 200 89 128 172 134 124 273 128 216 287 229 95 74 68 54 359 45 31 2 21 358 6 342 66 7 6 45 8 36 34 27 43 56 55 50 44 73 77 72 59 47
174 175 175 172 174 169 172 174 175 165 170 186 174 183 192 202 197 181 185 179 162 240 133 270 227 150 196 200 129 228 226 44 70 67 45 37 35 354 54 336 40 24 344 345 34 265 31 73 58 35 23 48 55 29 60 60 52 44 38 54 59 54
176 174 173 170 167 173 172 175 174 168 175 176 172 186 191 189 190 164 203 170 139 197 190 169 219 136 177 162 219 191 194 91 76 67 54 18 23 1 355 349 40 37 349 331 288 52 73 92 77 71 61 47 46 44 48 47 60 62 65 50 45 64
174 175 169 165 169 175 175 172 172 172 177 177 178 178 179 193 161 190 140 135 163 108 70 84 49 50 117 191 132 109 91 63 57 30 48 59 73 22 21 357 342 26 356 328 323 22 106 111 119 106 83 66 49 62 65 70 57 53 57 55 58 54
176 173 171 162 171 176 171 172 173 170 171 183 172 154 163 161 156 137 134 125 130 79 70 101 98 84 46 86 97 90 68 40 32 27 30 302 131 137 288 50 312 334 110 336 335 343 351 116 108 122 99 86 68 54 59 49 49 62 57 55 63 67
173 169 165 169 172 175 176 176 172 173 176 180 172 170 157 145 146 132 109 124 125 119 72 235 103 83 54 62 68 55 56 20 30 354 26 327 346 10 3 316 6 31 266 132 261 147 167 109 84 79 86 77 58 63 62 54 58 58 67 68 52 38
168 164 168 172 182 178 176 175 174 180 180 174 175 159 151 153 144 105 122 124 111 121 154 123 94 86 86 57 48 55 46 44 353 47 13 360 331 327 318 262 173 248 291 164 124 223 107 112 125 124 115 90 81 66 67 72 70 62 61 53 52 44
166 168 168 181 187 181 183 178 179 183 182 175 172 163 155 141 124 111 120 116 120 111 113 105 87 78 76 68 61 49 23 357 337 53 318 34 89 242 219 197 10 154 352 84 147 264 143 148 166 172 156 159 129 107 76 89 74 66 63 69 66 67
167 171 177 182 169 184 186 186 191 177 180 156 131 142 152 124 108 121 87 99 102 124 113 98 99 85 69 59 53 21 357 343 314 322 262 194 183 222 301 51 193 138 141 102 125 335 360 328 222 184 182 188 185 170 144 116 97 86 75 58 57 63
164 177 177 183 182 179 182 183 194 168 161 158 142 99 115 114 108 128 119 104 83 85 96 116 115 112 84 67 77 337 204 201 196 338 313 309 75 93 147 156 158 133 165 166 140 122 338 346 251 307 214 213 181 202 155 163 137 108 96 83 58 55
168 172 177 179 182 174 169 172 152 135 131 127 135 140 140 143 146 145 143 141 132 126 131 104 88 103 87 7 9 6 353 51 16 96 135 129 123 96 139 110 98 108 349 335 125 98 97 20 25 358 336 300 189 206 220 136 150 146 157 125 98 91
171 172 177 179 179 168 167 163 156 155 157 157 153 160 167 160 159 163 154 139 126 124 105 96 82 39 21 360 35 40 5 102 115 120 120 114 112 104 65 84 82 98 86 32 87 135 109 48 87 43 28 25 359 357 81 154 179 145 144 101 116 95
176 177 178 178 177 176 172 172 166 170 171 171 167 171 168 157 159 155 151 138 116 108 108 106 92 323 38 343 79 94 127 112 113 110 91 80 84 85 80 58 57 66 74 93 359 111 119 119 98 59 51 47 23 42 352 165 256 123 161 159 152 147
178 176 176 175 179 178 177 174 176 183 179 175 176 160 155 158 145 138 136 131 127 122 132 140 38 9 133 128 113 129 104 83 93 99 106 97 84 77 89 78 59 65 51 40 7 100 81 52 61 77 43 39 69 56 38 49 354 325 259 169 170 133
178 181 179 174 178 180 181 184 180 176 177 172 162 148 159 157 148 143 136 138 143 155 141 59 95 146 135 130 146 101 99 98 91 95 93 92 86 79 73 73 75 68 64 68 49 49 89 84 76 75 68 64 37 28 62 51 8 349 339 223 163 176
182 185 183 179 178 182 191 186 173 170 170 160 155 153 159 163 149 145 141 139 130 128 148 157 156 158 176 137 120 128 114 98 84 75 80 86 89 87 81 78 72 73 77 78 57 52 54 58 53 34 3 345 63 139 80 49 36 357 49 3 40 136
183 184 184 182 184 188 189 177 174 173 169 155 156 162 163 165 145 151 147 143 143 153 162 154 149 155 137 96 111 91 110 110 98 103 99 95 88 92 91 88 80 74 71 74 76 72 66 59 62 48 45 38 47 37 27 42 29 31 10 18 58 121
183 186 183 181 188 190 183 173 175 173 167 162 166 170 169 170 167 159 154 148 148 157 164 158 165 150 160 150 144 114 106 108 106 101 94 94 99 95 93 92 84 82 77 73 75 74 72 74 67 73 61 55 54 42 39 37 43 23 16 19 335 6
185 188 184 182 187 185 179 170 171 169 155 159 172 172 172 170 170 168 157 151 161 166 161 162 164 165 156 163 147 139 128 110 103 94 93 94 87 88 90 90 87 81 73 71 63 62 67 54 57 70 68 59 53 52 56 45 28 25 25 15 12 7
184 184 181 181 186 179 176 173 165 167 155 166 175 177 174 173 169 166 158 161 170 168 169 165 168 173 163 162 156 137 119 109 104 107 104 100 99 98 97 97 94 90 86 81 81 80 75 69 68 61 61 64 51 56 46 32 33 37 30 29 33 17
185 184 182 182 185 180 177 167 168 174 150 173 183 173 175 172 167 168 169 166 172 173 160 164 173 158 166 156 151 137 125 123 113 107 108 107 105 98 94 96 90 88 87 80 80 78 76 78 73 69 67 65 67 59 47 39 31 31 40 33 30 14
186 186 184 182 185 181 174 169 167 168 170 182 183 174 170 167 168 169 166 167 174 166 156 153 166 150 161 154 152 140 136 124 125 119 116 118 115 106 102 99 96 96 93 92 95 96 101 90 81 77 72 67 67 56 39 33 39 37 29 26 27 15
187 185 185 185 186 176 181 170 169 167 177 190 172 171 167 167 165 162 171 169 163 158 157 169 161 159 163 151 156 147 132 128 127 125 116 111 109 112 112 107 104 103 100 98 91 86 87 88 87 78 76 75 78 74 52 38 37 32 28 19 25 16